TimeCST,TemperatureF,Dew PointF,Humidity,Sea Level PressureIn,VisibilityMPH,Wind Direction,Wind SpeedMPH,Gust SpeedMPH,PrecipitationIn,Events,Conditions,WindDirDegrees,DateUTC
12:14 AM,37.4,32.0,81,29.71,1.8,SSE,12.7,-,N/A,,Light Drizzle,150,2013-01-11 06:14:00
12:34 AM,37.4,33.8,87,29.70,3.0,SSE,12.7,-,N/A,,Haze,150,2013-01-11 06:34:00
12:54 AM,37.4,32.0,81,29.68,7.0,SSE,11.5,-,N/A,,Overcast,160,2013-01-11 06:54:00
1:14 AM,37.4,32.0,81,29.67,7.0,SSE,12.7,-,N/A,,Overcast,160,2013-01-11 07:14:00
1:34 AM,37.4,32.0,81,29.67,7.0,SSE,11.5,-,N/A,,Overcast,160,2013-01-11 07:34:00
1:54 AM,37.4,32.0,81,29.66,5.0,SSE,11.5,-,N/A,,Haze,150,2013-01-11 07:54:00
2:14 AM,37.4,32.0,81,29.67,5.0,SSE,13.8,-,N/A,,Haze,150,2013-01-11 08:14:00
2:34 AM,37.4,32.0,81,29.66,2.5,SSE,12.7,-,N/A,,Haze,150,2013-01-11 08:34:00
2:54 AM,37.4,32.0,81,29.65,1.8,SSE,10.4,-,N/A,,Haze,150,2013-01-11 08:54:00
3:14 AM,37.4,32.0,81,29.64,2.0,SSE,8.1,-,N/A,,Haze,160,2013-01-11 09:14:00
3:34 AM,37.4,33.8,87,29.63,2.0,SSE,11.5,-,N/A,,Haze,150,2013-01-11 09:34:00
3:54 AM,37.4,33.8,87,29.62,1.8,SSE,12.7,18.4,N/A,,Haze,160,2013-01-11 09:54:00
4:14 AM,37.4,33.8,87,29.61,1.5,SSE,11.5,-,N/A,,Haze,150,2013-01-11 10:14:00
4:34 AM,37.4,33.8,87,29.60,1.2,SSE,12.7,-,N/A,,Haze,150,2013-01-11 10:34:00
4:54 AM,37.4,33.8,87,29.58,2.0,SSE,10.4,-,N/A,,Haze,150,2013-01-11 10:54:00
5:14 AM,37.4,33.8,87,29.58,2.5,SSE,10.4,-,N/A,,Haze,160,2013-01-11 11:14:00
5:54 AM,37.4,33.8,87,29.59,4.0,South,9.2,-,N/A,,Haze,170,2013-01-11 11:54:00
6:14 AM,37.4,33.8,87,29.57,3.0,South,6.9,-,N/A,,Haze,170,2013-01-11 12:14:00
6:34 AM,37.4,33.8,87,29.57,2.5,SSE,10.4,-,N/A,,Haze,150,2013-01-11 12:34:00
6:54 AM,37.4,33.8,87,29.57,4.0,SSE,10.4,-,N/A,,Haze,150,2013-01-11 12:54:00
7:14 AM,37.4,33.8,87,29.55,5.0,SE,9.2,-,N/A,,Haze,140,2013-01-11 13:14:00
7:34 AM,37.4,33.8,87,29.56,5.0,SSE,12.7,-,N/A,,Haze,150,2013-01-11 13:34:00
7:54 AM,37.4,33.8,87,29.57,5.0,SSE,13.8,18.4,N/A,,Haze,160,2013-01-11 13:54:00
8:14 AM,37.4,33.8,87,29.56,4.0,SSE,12.7,-,N/A,,Haze,160,2013-01-11 14:14:00
8:34 AM,37.4,33.8,87,29.56,4.0,SSE,12.7,-,N/A,,Haze,160,2013-01-11 14:34:00
8:54 AM,39.2,33.8,81,29.56,5.0,SSE,13.8,-,N/A,,Haze,160,2013-01-11 14:54:00
9:34 AM,39.2,33.8,81,29.55,7.0,SSE,15.0,-,N/A,,Overcast,150,2013-01-11 15:34:00
9:54 AM,39.2,33.8,81,29.54,7.0,SSE,12.7,-,N/A,,Overcast,150,2013-01-11 15:54:00
10:14 AM,39.2,33.8,81,29.55,7.0,SSE,11.5,-,N/A,,Overcast,160,2013-01-11 16:14:00
10:34 AM,39.2,33.8,81,29.54,10.0,SSE,13.8,-,N/A,,Overcast,150,2013-01-11 16:34:00
10:54 AM,39.2,33.8,81,29.54,10.0,SSE,12.7,-,N/A,,Overcast,160,2013-01-11 16:54:00
11:34 AM,39.2,33.8,81,29.54,2.0,South,11.5,19.6,N/A,,Haze,170,2013-01-11 17:34:00
11:54 AM,39.2,33.8,81,29.52,1.0,SSE,12.7,-,N/A,,Haze,160,2013-01-11 17:54:00
12:14 PM,39.2,33.8,81,29.49,0.8,SSE,11.5,16.1,N/A,,Haze,160,2013-01-11 18:14:00
12:34 PM,39.2,33.8,81,29.48,0.8,SSE,11.5,-,N/A,,Haze,150,2013-01-11 18:34:00
12:54 PM,39.2,35.6,87,29.48,0.2,SSE,10.4,-,N/A,,Haze,150,2013-01-11 18:54:00
1:14 PM,39.2,35.6,87,29.47,0.8,SSE,11.5,-,N/A,,Haze,150,2013-01-11 19:14:00
1:34 PM,39.2,35.6,87,29.46,1.2,SE,10.4,-,N/A,,Haze,140,2013-01-11 19:34:00
2:14 PM,39.2,35.6,87,29.46,0.8,SSE,10.4,-,N/A,,Haze,150,2013-01-11 20:14:00
2:34 PM,41.0,35.6,81,29.45,1.2,SE,11.5,-,N/A,,Haze,140,2013-01-11 20:34:00
2:54 PM,41.0,35.6,81,29.46,0.5,SSE,11.5,17.3,N/A,,Haze,150,2013-01-11 20:54:00
3:14 PM,42.8,37.4,81,29.45,0.5,SE,11.5,-,N/A,,Haze,140,2013-01-11 21:14:00
3:34 PM,42.8,37.4,81,29.45,0.5,SE,11.5,-,N/A,,Drizzle,140,2013-01-11 21:34:00
3:54 PM,42.8,37.4,81,29.43,0.8,SE,11.5,16.1,N/A,,Drizzle,140,2013-01-11 21:54:00
4:14 PM,42.8,37.4,81,29.43,1.0,SSE,11.5,-,N/A,,Light Drizzle,150,2013-01-11 22:14:00
4:34 PM,42.8,37.4,81,29.43,0.8,SSE,11.5,-,N/A,,Light Drizzle,150,2013-01-11 22:34:00
4:54 PM,42.8,37.4,81,29.42,2.0,SSE,12.7,-,N/A,,Haze,150,2013-01-11 22:54:00
5:14 PM,44.6,39.2,81,29.42,3.0,SSE,15.0,20.7,N/A,,Haze,160,2013-01-11 23:14:00
5:34 PM,44.6,39.2,81,29.42,3.0,SSE,15.0,-,N/A,,Haze,160,2013-01-11 23:34:00
5:54 PM,44.6,39.2,81,29.42,3.0,SSE,15.0,19.6,N/A,,Haze,160,2013-01-11 23:54:00
6:14 PM,44.6,39.2,81,29.41,3.0,SSE,13.8,-,N/A,,Haze,160,2013-01-12 00:14:00
6:34 PM,44.6,39.2,81,29.41,2.5,SSE,16.1,23.0,N/A,,Haze,160,2013-01-12 00:34:00
6:54 PM,44.6,39.2,81,29.41,1.8,SSE,15.0,23.0,N/A,,Haze,160,2013-01-12 00:54:00
7:14 PM,44.6,39.2,81,29.42,2.0,South,15.0,-,N/A,,Haze,170,2013-01-12 01:14:00
7:34 PM,44.6,39.2,81,29.41,1.2,SSE,12.7,-,N/A,,Haze,160,2013-01-12 01:34:00
7:54 PM,44.6,39.2,81,29.40,1.0,SSE,16.1,-,N/A,,Haze,150,2013-01-12 01:54:00
8:14 PM,44.6,37.4,76,29.39,1.8,SSE,12.7,-,N/A,,Haze,150,2013-01-12 02:14:00
8:34 PM,44.6,37.4,76,29.39,3.0,SSE,17.3,20.7,N/A,,Haze,150,2013-01-12 02:34:00
8:54 PM,44.6,37.4,76,29.39,1.8,SSE,19.6,23.0,N/A,,Haze,160,2013-01-12 02:54:00
9:14 PM,42.8,37.4,81,29.39,2.0,SSE,18.4,24.2,N/A,,Haze,160,2013-01-12 03:14:00
9:34 PM,42.8,37.4,81,29.39,4.0,South,16.1,21.9,N/A,,Haze,170,2013-01-12 03:34:00
9:54 PM,42.8,37.4,81,29.40,4.0,South,12.7,-,N/A,,Haze,170,2013-01-12 03:54:00
10:14 PM,42.8,37.4,81,29.40,5.0,South,10.4,-,N/A,,Haze,180,2013-01-12 04:14:00
10:34 PM,42.8,37.4,81,29.40,4.0,South,10.4,-,N/A,,Haze,170,2013-01-12 04:34:00
10:54 PM,42.8,37.4,81,29.40,4.0,South,10.4,-,N/A,,Haze,170,2013-01-12 04:54:00
11:14 PM,42.8,37.4,81,29.40,5.0,South,9.2,-,N/A,,Haze,190,2013-01-12 05:14:00
11:34 PM,42.8,37.4,81,29.41,5.0,SSW,10.4,-,N/A,,Haze,210,2013-01-12 05:34:00
11:54 PM,42.8,37.4,81,29.40,3.0,SW,9.2,-,N/A,,Haze,220,2013-01-12 05:54:00